User: anonymous   Login
Location: Churchill Northern Studies Centre
(58.7378°N, 93.8201°W)
Time: 04:19:27
(UTC-05:00)
Language:

Gurwin Techsat 1B - Orbit

View from above orbital plane
View from above orbital plane
View from above satellite
View from above satellite

Ground track
Ground track

The orbit data is extracted from the following two-line orbital elements,

1 25397U 98043D   18112.86015547 -.00000005 +00000-0 +17009-4 0  9996
2 25397 098.6458 054.2269 0001662 137.6205 222.5102 14.23643919027639
Epoch (UTC): 22 April 2018 20:38:37
Eccentricity: 0.0001662
inclination: 98.6458°
perigee height: 812 km
apogee height: 814 km
right ascension of ascending node: 54.2269°
argument of perigee: 137.6205°
revolutions per day: 14.23643919
mean anomaly at epoch: 222.5102°
orbit number at epoch: 2763

The dashed part of the orbit path shows where the satellite is in the earth's shadow,  

DLR